K5SVV Weather Reports


Display with metric or nautical units.
time (UTC)temp
F
wind
direction
speed
MPH
gust
MPH
rain 1hr
in
rain 24hr
in
rain mn
in
humidity
%
barometer
mb
20260831234233 98 126 5.0 7.0 0.00 0.00 0.00 35 1013.1
20260831233728 98 138 3.0 7.0 0.00 0.00 0.00 35 1013.1
20260831233224 98 79 2.0 3.0 0.00 0.00 0.00 35 1012.6
20260831232724 98 163 3.0 4.0 0.00 0.00 0.00 36 1013.0
20260831232220 99 154 1.0 3.0 0.00 0.00 0.00 35 1013.2
20260831231716 98 189 0.0 0.0 0.00 0.00 0.00 35 1013.0
20260831231212 99 151 0.0 0.0 0.00 0.00 0.00 35 1013.0
20260831230712 99 164 1.0 1.0 0.00 0.00 0.00 36 1012.9
20260831230207 99 156 2.0 2.0 0.00 0.00 0.00 36 1012.9
20260831225707 99 114 1.0 2.0 0.00 0.00 0.00 35 1012.9
20260831225202 99 164 0.0 1.0 0.00 0.00 0.00 36 1013.2
20260831224657 99 136 2.0 3.0 0.00 0.00 0.00 36 1013.1
20260831224152 99 162 1.0 2.0 0.00 0.00 0.00 35 1013.3
20260831223648 100 150 1.0 2.0 0.00 0.00 0.00 36 1013.3
20260831223144 99 186 0.0 0.0 0.00 0.00 0.00 36 1013.5
20260831222639 99 125 3.0 4.0 0.00 0.00 0.00 36 1013.4
20260831222135 99 167 5.0 7.0 0.00 0.00 0.00 36 1013.3
20260831221630 99 149 1.0 2.0 0.00 0.00 0.00 36 1013.2
20260831221125 98 173 3.0 4.0 0.00 0.00 0.00 36 1013.2
20260831220621 96 172 1.0 2.0 0.00 0.00 0.00 38 1013.3
20260831220115 97 132 3.0 4.0 0.00 0.00 0.00 38 1013.5
20260831215611 98 163 2.0 3.0 0.00 0.00 0.00 38 1013.2
20260831215107 99 162 2.0 2.0 0.00 0.00 0.00 37 1013.4
20260831214604 100 160 4.0 6.0 0.00 0.00 0.00 35 1013.6
20260831214100 101 152 6.0 8.0 0.00 0.00 0.00 36 1013.5
20260831213556 100 65 2.0 2.0 0.00 0.00 0.00 35 1013.4
20260831213051 99 188 5.0 7.0 0.00 0.00 0.00 37 1013.8
20260831212542 100 187 0.0 0.0 0.00 0.00 0.00 36 1013.7
20260831212037 100 160 2.0 4.0 0.00 0.00 0.00 37 1013.8
20260831211531 98 92 0.0 0.0 0.00 0.00 0.00 38 1013.7
20260831211031 101 157 0.0 1.0 0.00 0.00 0.00 37 1013.8
20260831210526 101 205 3.0 7.0 0.00 0.00 0.00 36 1013.9
20260831210022 101 48 1.0 3.0 0.00 0.00 0.00 35 1013.8
20260831205516 101 195 6.0 8.0 0.00 0.00 0.00 35 1014.0
20260831205012 100 182 2.0 2.0 0.00 0.00 0.00 35 1014.1
20260831204507 100 153 5.0 7.0 0.00 0.00 0.00 36 1014.4
20260831204005 100 168 5.0 7.0 0.00 0.00 0.00 36 1014.2
20260831203505 101 171 6.0 8.0 0.00 0.00 0.00 35 1014.5
20260831203004 100 159 1.0 1.0 0.00 0.00 0.00 35 1014.6
20260831202459 100 103 5.0 6.0 0.00 0.00 0.00 35 1014.7
20260831201958 100 159 0.0 1.0 0.00 0.00 0.00 35 1014.7
20260831201456 100 153 1.0 1.0 0.00 0.00 0.00 36 1014.7
20260831200952 100 91 1.0 1.0 0.00 0.00 0.00 37 1014.7
20260831200447 100 162 5.0 9.0 0.00 0.00 0.00 37 1014.8
20260831195942 100 165 2.0 3.0 0.00 0.00 0.00 35 1014.8
20260831195438 99 54 1.0 2.0 0.00 0.00 0.00 35 1014.8
20260831194933 97 184 7.0 9.0 0.00 0.00 0.00 38 1014.8
20260831194428 98 171 2.0 3.0 0.00 0.00 0.00 40 1014.9
20260831193927 99 165 4.0 6.0 0.00 0.00 0.00 38 1015.1
20260831193423 98 142 4.0 4.0 0.00 0.00 0.00 38 1015.0
20260831192918 98 179 7.0 10.0 0.00 0.00 0.00 39 1015.3
20260831192413 98 145 3.0 3.0 0.00 0.00 0.00 41 1015.6
20260831191908 99 170 1.0 3.0 0.00 0.00 0.00 39 1015.5
20260831191404 99 154 2.0 2.0 0.00 0.00 0.00 40 1015.4
20260831190901 99 189 5.0 7.0 0.00 0.00 0.00 39 1015.5
20260831190400 98 195 9.0 14.0 0.00 0.00 0.00 37 1015.5
20260831185900 98 194 6.0 10.0 0.00 0.00 0.00 40 1015.6
20260831185355 98 178 2.0 2.0 0.00 0.00 0.00 41 1015.4
20260831184855 98 149 5.0 7.0 0.00 0.00 0.00 41 1015.4
20260831184350 98 198 8.0 10.0 0.00 0.00 0.00 39 1015.7
20260831183845 97 190 5.0 6.0 0.00 0.00 0.00 42 1015.5
20260831183345 97 179 9.0 15.0 0.00 0.00 0.00 42 1015.7
20260831182844 97 157 4.0 6.0 0.00 0.00 0.00 42 1015.9
20260831182339 98 168 7.0 11.0 0.00 0.00 0.00 41 1015.8
20260831181834 97 159 0.0 1.0 0.00 0.00 0.00 43 1015.9
20260831181330 96 175 2.0 2.0 0.00 0.00 0.00 45 1015.9
20260831180824 96 117 4.0 6.0 0.00 0.00 0.00 43 1016.0
20260831180319 95 142 5.0 7.0 0.00 0.00 0.00 45 1016.3
20260831175818 96 162 5.0 8.0 0.00 0.00 0.00 44 1016.3
20260831175315 96 182 3.0 3.0 0.00 0.00 0.00 45 1016.3
20260831174810 96 195 3.0 7.0 0.00 0.00 0.00 45 1016.4
20260831174306 97 154 2.0 3.0 0.00 0.00 0.00 43 1016.7
20260831173805 96 160 0.0 0.0 0.00 0.00 0.00 44 1016.6
20260831173259 96 154 3.0 3.0 0.00 0.00 0.00 46 1016.7
20260831172754 96 178 4.0 9.0 0.00 0.00 0.00 45 1017.0
20260831172249 96 182 6.0 8.0 0.00 0.00 0.00 45 1016.6
20260831171744 95 149 1.0 1.0 0.00 0.00 0.00 47 1016.7
20260831171241 95 129 6.0 7.0 0.00 0.00 0.00 47 1017.1
20260831170738 94 133 5.0 6.0 0.00 0.00 0.00 47 1016.9
20260831170234 94 172 7.0 8.0 0.00 0.00 0.00 49 1017.0
20260831165730 94 190 3.0 4.0 0.00 0.00 0.00 48 1017.0
20260831165226 94 189 4.0 4.0 0.00 0.00 0.00 48 1016.9
20260831164721 93 186 1.0 3.0 0.00 0.00 0.00 51 1016.9
20260831164218 92 147 1.0 3.0 0.00 0.00 0.00 53 1017.1
20260831163713 92 191 6.0 7.0 0.00 0.00 0.00 53 1017.2
20260831163208 92 185 4.0 7.0 0.00 0.00 0.00 52 1017.1
20260831162707 91 165 2.0 2.0 0.00 0.00 0.00 52 1017.0
20260831162206 91 168 7.0 9.0 0.00 0.00 0.00 52 1016.9
20260831161701 92 158 4.0 6.0 0.00 0.00 0.00 53 1017.0
20260831161158 91 181 3.0 4.0 0.00 0.00 0.00 53 1017.0
20260831160656 91 184 3.0 4.0 0.00 0.00 0.00 54 1017.1
20260831160152 90 162 4.0 4.0 0.00 0.00 0.00 54 1017.1
20260831155651 91 178 7.0 10.0 0.00 0.00 0.00 55 1017.2
20260831155147 89 171 1.0 1.0 0.00 0.00 0.00 56 1017.2
20260831154643 89 206 4.0 4.0 0.00 0.00 0.00 58 1017.2
20260831154138 89 169 4.0 6.0 0.00 0.00 0.00 59 1017.2
20260831153637 88 147 4.0 6.0 0.00 0.00 0.00 59 1017.1
20260831153134 88 177 6.0 8.0 0.00 0.00 0.00 59 1017.1
20260831152629 88 159 7.0 11.0 0.00 0.00 0.00 59 1017.1
20260831152125 87 185 2.0 6.0 0.00 0.00 0.00 62 1016.8
20260831151624 87 226 3.0 3.0 0.00 0.00 0.00 64 1016.9
20260831151118 86 182 4.0 4.0 0.00 0.00 0.00 65 1016.9
20260831150609 86 190 4.0 7.0 0.00 0.00 0.00 65 1017.0
20260831150104 86 181 7.0 8.0 0.00 0.00 0.00 65 1016.9
20260831145558 86 189 5.0 7.0 0.00 0.00 0.00 67 1017.0
20260831145054 85 217 4.0 4.0 0.00 0.00 0.00 68 1016.8
20260831144550 84 218 6.0 9.0 0.00 0.00 0.00 69 1016.8
20260831144045 84 179 4.0 4.0 0.00 0.00 0.00 70 1016.7
20260831143539 84 222 2.0 3.0 0.00 0.00 0.00 71 1016.9
20260831143035 84 196 9.0 10.0 0.00 0.00 0.00 71 1016.9
20260831142532 83 186 8.0 10.0 0.00 0.00 0.00 71 1016.7
20260831142027 83 167 5.0 6.0 0.00 0.00 0.00 72 1016.5
20260831141526 83 181 4.0 6.0 0.00 0.00 0.00 73 1016.8
20260831141021 82 224 1.0 2.0 0.00 0.00 0.00 74 1016.7
20260831140520 82 190 4.0 7.0 0.00 0.00 0.00 74 1016.6
20260831140015 82 208 4.0 6.0 0.00 0.00 0.00 74 1016.6
20260831135513 82 183 5.0 6.0 0.00 0.00 0.00 76 1016.5
20260831135008 81 188 4.0 7.0 0.00 0.00 0.00 76 1016.3
20260831134504 81 231 4.0 6.0 0.00 0.00 0.00 77 1016.3
20260831134003 81 217 2.0 3.0 0.00 0.00 0.00 78 1016.3
20260831133458 80 227 7.0 9.0 0.00 0.00 0.00 78 1016.3
20260831132953 80 215 1.0 3.0 0.00 0.00 0.00 79 1016.4
20260831132449 80 192 2.0 3.0 0.00 0.00 0.00 80 1016.2
20260831131948 79 192 4.0 4.0 0.00 0.00 0.00 80 1016.0
20260831131443 79 193 4.0 4.0 0.00 0.00 0.00 81 1016.2
20260831130938 79 191 4.0 7.0 0.00 0.00 0.00 81 1016.2
20260831130434 78 152 4.0 4.0 0.00 0.00 0.00 82 1016.0
20260831125928 78 194 4.0 6.0 0.00 0.00 0.00 82 1016.0
20260831125427 78 189 3.0 3.0 0.00 0.00 0.00 83 1016.0
20260831124924 77 172 2.0 3.0 0.00 0.00 0.00 83 1016.0
20260831124419 77 169 1.0 2.0 0.00 0.00 0.00 83 1016.0
20260831123915 77 183 2.0 2.0 0.00 0.00 0.00 83 1015.9
20260831123413 77 150 2.0 2.0 0.00 0.00 0.00 82 1015.8
20260831122908 77 161 5.0 6.0 0.00 0.00 0.00 82 1015.9
20260831122404 77 197 3.0 4.0 0.00 0.00 0.00 82 1015.5
20260831121859 77 185 5.0 7.0 0.00 0.00 0.00 82 1015.4
20260831121354 77 208 3.0 3.0 0.00 0.00 0.00 81 1015.5
20260831120850 77 182 3.0 3.0 0.00 0.00 0.00 81 1015.3
20260831120344 78 183 6.0 8.0 0.00 0.00 0.00 80 1015.4
20260831115839 78 193 3.0 4.0 0.00 0.00 0.00 80 1015.1
20260831115336 78 185 3.0 4.0 0.00 0.00 0.00 80 1015.3
20260831114834 78 207 2.0 3.0 0.00 0.00 0.00 80 1015.0
20260831114328 78 207 0.0 3.0 0.00 0.00 0.00 79 1015.2
20260831113824 78 204 0.0 1.0 0.00 0.00 0.00 79 1015.1
20260831113323 78 196 4.0 6.0 0.00 0.00 0.00 79 1014.8
20260831112818 78 195 4.0 4.0 0.00 0.00 0.00 79 1015.1
20260831112313 78 198 3.0 3.0 0.00 0.00 0.00 79 1014.9
20260831111808 78 167 2.0 4.0 0.00 0.00 0.00 79 1014.9
20260831111305 78 192 3.0 4.0 0.00 0.00 0.00 78 1015.1
20260831110801 78 180 0.0 0.0 0.00 0.00 0.00 78 1015.0
20260831110255 78 200 0.0 0.0 0.00 0.00 0.00 78 1014.9
20260831105754 78 186 0.0 0.0 0.00 0.00 0.00 77 1014.9
20260831105250 79 194 4.0 4.0 0.00 0.00 0.00 77 1014.8
20260831104750 79 194 4.0 6.0 0.00 0.00 0.00 77 1014.9
20260831104247 79 180 6.0 7.0 0.00 0.00 0.00 77 1014.9
20260831103746 79 192 3.0 3.0 0.00 0.00 0.00 76 1014.9
20260831103242 79 196 0.0 2.0 0.00 0.00 0.00 76 1014.7
20260831102741 79 189 0.0 0.0 0.00 0.00 0.00 76 1014.8
20260831102236 79 181 0.0 0.0 0.00 0.00 0.00 76 1014.8
20260831101732 79 188 0.0 0.0 0.00 0.00 0.00 77 1014.6
20260831101227 79 191 4.0 6.0 0.00 0.00 0.00 76 1014.8
20260831100723 79 197 1.0 3.0 0.00 0.00 0.00 76 1014.6
20260831100219 79 196 3.0 4.0 0.00 0.00 0.00 76 1014.8
20260831095718 79 195 3.0 3.0 0.00 0.00 0.00 75 1014.8
20260831095213 80 188 0.0 0.0 0.00 0.00 0.00 75 1014.9
20260831094708 80 193 3.0 3.0 0.00 0.00 0.00 75 1014.7
20260831094204 80 209 5.0 6.0 0.00 0.00 0.00 74 1014.4
20260831093659 80 186 3.0 4.0 0.00 0.00 0.00 74 1014.9
20260831093154 80 207 0.0 1.0 0.00 0.00 0.00 73 1014.6
20260831092651 80 190 0.0 0.0 0.00 0.00 0.00 73 1014.8
20260831092147 80 202 3.0 6.0 0.00 0.00 0.00 73 1014.4
20260831091646 81 196 4.0 6.0 0.00 0.00 0.00 73 1014.7
20260831091142 81 205 6.0 7.0 0.00 0.00 0.00 72 1014.5
20260831090637 81 181 3.0 3.0 0.00 0.00 0.00 72 1014.4
20260831090133 81 183 4.0 4.0 0.00 0.00 0.00 72 1014.5
20260831085628 81 205 3.0 3.0 0.00 0.00 0.00 71 1014.6
20260831085123 82 185 4.0 4.0 0.00 0.00 0.00 71 1014.2
20260831084619 82 196 3.0 3.0 0.00 0.00 0.00 71 1014.6
20260831084115 82 164 6.0 7.0 0.00 0.00 0.00 70 1014.2
20260831083611 82 179 4.0 4.0 0.00 0.00 0.00 70 1014.4
20260831083106 82 201 3.0 3.0 0.00 0.00 0.00 70 1013.9
20260831082604 82 215 4.0 6.0 0.00 0.00 0.00 69 1014.0
20260831082100 82 229 4.0 6.0 0.00 0.00 0.00 69 1014.4
20260831081556 82 202 5.0 8.0 0.00 0.00 0.00 68 1014.1
20260831081051 82 199 3.0 4.0 0.00 0.00 0.00 68 1014.2
20260831080546 83 182 4.0 4.0 0.00 0.00 0.00 67 1014.1
20260831080042 83 205 6.0 7.0 0.00 0.00 0.00 67 1014.1
20260831075536 83 184 6.0 8.0 0.00 0.00 0.00 66 1014.4
20260831075032 83 187 3.0 4.0 0.00 0.00 0.00 66 1014.0
20260831074531 83 194 3.0 7.0 0.00 0.00 0.00 65 1014.2
20260831074026 83 186 6.0 7.0 0.00 0.00 0.00 65 1014.2
20260831073521 83 178 4.0 4.0 0.00 0.00 0.00 65 1014.1
20260831073020 83 202 5.0 7.0 0.00 0.00 0.00 64 1014.2
20260831072516 83 197 4.0 4.0 0.00 0.00 0.00 64 1014.1
20260831072012 83 210 3.0 3.0 0.00 0.00 0.00 63 1014.2
20260831071510 83 184 3.0 4.0 0.00 0.00 0.00 63 1014.2
20260831071006 83 201 4.0 6.0 0.00 0.00 0.00 62 1014.1
20260831070504 83 190 4.0 4.0 0.00 0.00 0.00 62 1014.2
20260831065959 83 182 1.0 3.0 0.00 0.00 0.00 61 1014.1
20260831065457 83 179 3.0 4.0 0.00 0.00 0.00 60 1014.4
20260831064952 83 182 5.0 6.0 0.00 0.00 0.00 60 1014.6
20260831064447 83 173 7.0 9.0 0.00 0.00 0.00 59 1014.4
20260831063942 84 182 6.0 9.0 0.00 0.00 0.00 59 1014.4
20260831063437 84 211 3.0 3.0 0.00 0.00 0.00 58 1014.4
20260831062931 84 198 5.0 7.0 0.00 0.00 0.00 57 1014.4
20260831062429 84 194 4.0 6.0 0.00 0.00 0.00 57 1014.2
20260831061926 84 184 4.0 4.0 0.00 0.00 0.00 56 1014.2
20260831061425 84 180 3.0 3.0 0.00 0.00 0.00 56 1014.5
20260831060921 84 193 5.0 6.0 0.00 0.00 0.00 55 1014.1
20260831060415 84 193 4.0 4.0 0.00 0.00 0.00 55 1014.1
20260831055909 84 190 2.0 3.0 0.00 0.00 0.00 55 1014.1
20260831055405 84 179 2.0 2.0 0.00 0.00 0.00 55 1014.1
20260831054900 84 194 2.0 3.0 0.00 0.00 0.00 55 1014.6
20260831054354 84 203 3.0 4.0 0.00 0.00 0.00 54 1014.0
20260831053853 84 190 2.0 3.0 0.00 0.00 0.00 54 1014.1
20260831053352 84 189 3.0 4.0 0.00 0.00 0.00 55 1014.2
20260831052846 84 187 2.0 2.0 0.00 0.00 0.00 55 1014.0
20260831052341 84 176 2.0 2.0 0.00 0.00 0.00 55 1014.4
20260831051839 84 143 3.0 3.0 0.00 0.00 0.00 55 1014.1
20260831051338 84 187 0.0 0.0 0.00 0.00 0.00 55 1014.2
20260831050833 84 140 3.0 4.0 0.00 0.00 0.00 56 1014.0
20260831050331 84 179 0.0 0.0 0.00 0.00 0.00 56 1014.0
20260831045826 84 180 1.0 2.0 0.00 0.00 0.00 56 1014.2
20260831045320 84 186 1.0 1.0 0.00 0.00 0.00 56 1013.9
20260831044816 84 174 0.0 0.0 0.00 0.00 0.00 57 1013.9
20260831044310 84 172 1.0 1.0 0.00 0.00 0.00 57 1014.1
20260831043807 83 166 4.0 6.0 0.00 0.00 0.00 57 1013.9
20260831043306 83 181 0.0 0.0 0.00 0.00 0.00 57 1013.8
20260831042801 83 176 0.0 0.0 0.00 0.00 0.00 57 1014.0
20260831042300 83 165 0.0 0.0 0.00 0.00 0.00 58 1014.0
20260831041756 84 186 0.0 0.0 0.00 0.00 0.00 57 1014.2
20260831041255 84 178 0.0 0.0 0.00 0.00 0.00 57 1014.1
20260831040750 84 179 0.0 0.0 0.00 0.00 0.00 57 1013.9
20260831040249 84 180 0.0 0.0 0.00 0.00 0.00 57 1013.9
20260831035748 84 182 0.0 0.0 0.00 0.00 0.00 56 1013.9
20260831035247 84 178 0.0 0.0 0.00 0.00 0.00 56 1013.7
20260831034747 84 176 0.0 0.0 0.00 0.00 0.00 56 1013.6
20260831034243 84 176 0.0 0.0 0.00 0.00 0.00 56 1013.7
20260831033738 85 176 0.0 0.0 0.00 0.00 0.00 55 1013.7
20260831033237 85 178 0.0 0.0 0.00 0.00 0.00 55 1013.7
20260831032733 85 175 0.0 0.0 0.00 0.00 0.00 55 1013.4
20260831032227 85 176 0.0 0.0 0.00 0.00 0.00 54 1013.7
20260831031722 85 175 0.0 0.0 0.00 0.00 0.00 54 1013.6
20260831031217 85 175 0.0 0.0 0.00 0.00 0.00 54 1013.6
20260831030716 86 178 0.0 0.0 0.00 0.00 0.00 54 1013.7
20260831030214 86 176 0.0 0.0 0.00 0.00 0.00 54 1013.6
20260831025708 86 175 0.0 0.0 0.00 0.00 0.00 53 1013.4
20260831025203 86 179 0.0 0.0 0.00 0.00 0.00 54 1013.3
20260831024659 86 176 0.0 0.0 0.00 0.00 0.00 53 1013.3
20260831024157 86 181 0.0 0.0 0.00 0.00 0.00 53 1013.1
20260831023655 86 181 0.0 0.0 0.00 0.00 0.00 53 1013.3
20260831023149 86 163 0.0 0.0 0.00 0.00 0.00 52 1013.2
20260831022644 86 176 0.0 0.0 0.00 0.00 0.00 52 1013.2
20260831022140 87 176 0.0 0.0 0.00 0.00 0.00 51 1013.0
20260831021639 87 175 0.0 0.0 0.00 0.00 0.00 51 1013.1
20260831021134 87 175 0.0 0.0 0.00 0.00 0.00 51 1013.2
20260831020630 87 178 0.0 0.0 0.00 0.00 0.00 50 1012.7
20260831020124 88 176 0.0 0.0 0.00 0.00 0.00 50 1013.0
20260831015620 88 178 0.0 0.0 0.00 0.00 0.00 49 1012.7
20260831015120 88 176 0.0 0.0 0.00 0.00 0.00 49 1012.6
20260831014615 89 181 0.0 0.0 0.00 0.00 0.00 48 1012.5
20260831014111 89 182 0.0 0.0 0.00 0.00 0.00 48 1012.5
20260831013607 89 178 0.0 0.0 0.00 0.00 0.00 47 1012.3
20260831013106 90 175 0.0 0.0 0.00 0.00 0.00 47 1012.2
20260831012601 90 176 0.0 0.0 0.00 0.00 0.00 47 1012.3
20260831012056 90 176 1.0 2.0 0.00 0.00 0.00 46 1012.6
20260831011555 91 181 0.0 0.0 0.00 0.00 0.00 46 1012.3
20260831011051 91 176 0.0 0.0 0.00 0.00 0.00 46 1012.3
20260831010546 91 188 1.0 1.0 0.00 0.00 0.00 46 1012.4
20260831010042 92 177 0.0 0.0 0.00 0.00 0.00 46 1012.3
20260831005537 92 175 0.0 0.0 0.00 0.00 0.00 45 1012.3
20260831005036 93 182 0.0 0.0 0.00 0.00 0.00 45 1012.2
20260831004532 93 157 0.0 0.0 0.00 0.00 0.00 45 1012.4
20260831004028 93 169 2.0 2.0 0.00 0.00 0.00 44 1012.3
20260831003524 94 181 0.0 0.0 0.00 0.00 0.00 43 1012.3
20260831003020 94 209 1.0 4.0 0.00 0.00 0.00 43 1012.0
20260831002518 95 211 1.0 2.0 0.00 0.00 0.00 42 1012.2
20260831002013 95 190 1.0 2.0 0.00 0.00 0.00 41 1012.0
20260831001508 95 169 3.0 4.0 0.00 0.00 0.00 41 1012.1
20260831000959 96 190 2.0 3.0 0.00 0.00 0.00 40 1012.1
20260831000455 96 151 3.0 4.0 0.00 0.00 0.00 41 1012.0
20260830235952 97 181 3.0 4.0 0.00 0.00 0.00 40 1012.1
20260830235448 97 162 2.0 3.0 0.00 0.00 0.00 39 1012.1
20260830234943 97 178 0.0 0.0 0.00 0.00 0.00 39 1012.4